When you browse on this site, cookies collect data to enhance your experience and personalize the content and advertising you see.
Visit our Privacy Policy to learn more. By continuing to use the site, you agree to this use of cookies and data.
  • In Hungary
  • List of Countries
  • For 7 days
  • Water Temperature
  • Satellite Maps
  • Weather Map
  • News
  • Weather Widgets
  • user-avatar
    Login

    Hourly Weather Morkiyaly

    Today, 23 January, Wednesday

    Time Temperature Precipitation Wind Pressure Humidity
    00:00 -26°C° 0 mm 3 mps 753 mmHg 98%
    01:00 -26°C° 0 mm 3 mps 753 mmHg 98%
    02:00 -25°C° 0 mm 2 mps 754 mmHg 98%
    03:00 -25°C° 0 mm 2 mps 754 mmHg 98%
    04:00 -25°C° 0 mm 2 mps 754 mmHg 98%
    05:00 -25°C° 0 mm 2 mps 754 mmHg 98%
    06:00 -25°C° 0 mm 2 mps 754 mmHg 98%
    07:00 -25°C° 0 mm 2 mps 755 mmHg 97%
    08:00 -25°C° 0 mm 2 mps 755 mmHg 97%
    09:00 -25°C° 0 mm 2 mps 755 mmHg 97%
    10:00 -25°C° 0 mm 3 mps 756 mmHg 96%
    11:00 -23°C° 0 mm 3 mps 756 mmHg 95%
    12:00 -22°C° 0 mm 3 mps 756 mmHg 95%
    13:00 -21°C° 0 mm 3 mps 757 mmHg 95%
    14:00 -21°C° 0 mm 3 mps 757 mmHg 95%
    15:00 -19°C° 0 mm 3 mps 757 mmHg 95%
    16:00 -21°C° 0 mm 3 mps 757 mmHg 95%
    17:00 -21°C° 0 mm 3 mps 758 mmHg 95%
    18:00 -21°C° 0 mm 3 mps 758 mmHg 96%
    19:00 -22°C° 0 mm 3 mps 758 mmHg 97%
    20:00 -21°C° 0 mm 2 mps 759 mmHg 97%
    21:00 -23°C° 0 mm 2 mps 759 mmHg 98%
    22:00 -24°C° 0 mm 2 mps 759 mmHg 98%
    23:00 -24°C° 0 mm 2 mps 760 mmHg 98%

    Tomorrow, 24 January, Thursday

    Time Temperature Precipitation Wind Pressure Humidity
    00:00 -24°C° 0 mm 2 mps 760 mmHg 98%
    01:00 -24°C° 0 mm 2 mps 760 mmHg 98%
    02:00 -24°C° 0 mm 2 mps 760 mmHg 97%
    03:00 -24°C° 0 mm 2 mps 761 mmHg 96%
    04:00 -24°C° 0 mm 2 mps 760 mmHg 96%
    05:00 -24°C° 0 mm 2 mps 760 mmHg 95%
    06:00 -24°C° 0 mm 2 mps 760 mmHg 94%
    07:00 -24°C° 0 mm 3 mps 760 mmHg 93%
    08:00 -23°C° 0 mm 3 mps 760 mmHg 91%
    09:00 -23°C° 0 mm 3 mps 759 mmHg 90%
    10:00 -22°C° 0 mm 4 mps 759 mmHg 88%
    11:00 -21°C° 0 mm 5 mps 759 mmHg 87%
    12:00 -19°C° 0 mm 5 mps 758 mmHg 85%
    13:00 -19°C° 0.2 mm 5 mps 757 mmHg 88%
    14:00 -18°C° 0.2 mm 6 mps 757 mmHg 90%
    15:00 -18°C° 0.2 mm 6 mps 756 mmHg 92%
    16:00 -18°C° 0.3 mm 6 mps 755 mmHg 92%
    17:00 -18°C° 0.3 mm 5 mps 755 mmHg 92%
    18:00 -18°C° 0.3 mm 5 mps 754 mmHg 92%
    19:00 -17°C° 0.1 mm 4 mps 754 mmHg 93%
    20:00 -17°C° 0.1 mm 4 mps 753 mmHg 93%
    21:00 -16°C° 0.1 mm 3 mps 753 mmHg 94%
    22:00 -15°C° 0.1 mm 2 mps 753 mmHg 95%
    23:00 -16°C° 0.1 mm 2 mps 753 mmHg 96%

    Day after tomorrow, 25 January, Friday

    Time Temperature Precipitation Wind Pressure Humidity
    00:00 -16°C° 0.1 mm 2 mps 752 mmHg 96%
    01:00 -17°C° 0.1 mm 2 mps 752 mmHg 96%
    02:00 -17°C° 0.1 mm 2 mps 752 mmHg 97%
    03:00 -17°C° 0.1 mm 2 mps 752 mmHg 97%
    04:00 -18°C° 0 mm 2 mps 752 mmHg 97%
    05:00 -19°C° 0 mm 2 mps 753 mmHg 97%
    06:00 -20°C° 0 mm 2 mps 753 mmHg 98%
    07:00 -19°C° 0 mm 2 mps 754 mmHg 98%
    08:00 -21°C° 0 mm 3 mps 754 mmHg 97%
    09:00 -21°C° 0 mm 3 mps 755 mmHg 97%
    10:00 -19°C° 0 mm 3 mps 756 mmHg 95%
    11:00 -18°C° 0 mm 3 mps 756 mmHg 94%
    12:00 -18°C° 0 mm 4 mps 757 mmHg 92%
    13:00 -18°C° 0 mm 3 mps 757 mmHg 93%
    14:00 -19°C° 0 mm 3 mps 758 mmHg 93%
    15:00 -19°C° 0 mm 3 mps 758 mmHg 94%
    16:00 -22°C° 0 mm 3 mps 759 mmHg 95%
    17:00 -23°C° 0 mm 3 mps 759 mmHg 97%
    18:00 -23°C° 0 mm 2 mps 760 mmHg 98%
    19:00 -23°C° 0 mm 2 mps 760 mmHg 98%
    20:00 -24°C° 0 mm 2 mps 761 mmHg 98%
    21:00 -24°C° 0 mm 2 mps 761 mmHg 98%
    22:00 -24°C° 0 mm 2 mps 762 mmHg 99%
    23:00 -24°C° 0 mm 2 mps 762 mmHg 99%

    26 January, Saturday

    Time Temperature Precipitation Wind Pressure Humidity
    00:00 -24°C° 0 mm 2 mps 762 mmHg 99%
    01:00 -21°C° 0 mm 1 mps 762 mmHg 99%
    02:00 -22°C° 0 mm 1 mps 763 mmHg 99%
    03:00 -22°C° 0 mm 1 mps 763 mmHg 99%
    04:00 -22°C° 0 mm 1 mps 763 mmHg 99%
    05:00 -22°C° 0 mm 1 mps 763 mmHg 99%
    06:00 -23°C° 0 mm 1 mps 763 mmHg 99%
    07:00 -22°C° 0 mm 0 mps 763 mmHg 99%
    08:00 -22°C° 0 mm 0 mps 763 mmHg 99%
    09:00 -22°C° 0 mm 0 mps 764 mmHg 98%
    10:00 -21°C° 0 mm 0 mps 764 mmHg 97%
    11:00 -19°C° 0 mm 0 mps 764 mmHg 95%
    12:00 -18°C° 0 mm 1 mps 764 mmHg 93%
    13:00 -18°C° 0 mm 1 mps 764 mmHg 94%
    14:00 -19°C° 0 mm 1 mps 764 mmHg 95%
    15:00 -19°C° 0 mm 1 mps 763 mmHg 96%
    16:00 -23°C° 0 mm 2 mps 763 mmHg 97%
    17:00 -24°C° 0 mm 2 mps 763 mmHg 97%
    18:00 -25°C° 0 mm 2 mps 763 mmHg 98%
    19:00 -26°C° 0 mm 3 mps 763 mmHg 98%
    20:00 -25°C° 0 mm 3 mps 763 mmHg 97%
    21:00 -25°C° 0 mm 3 mps 763 mmHg 97%
    22:00 -24°C° 0 mm 3 mps 762 mmHg 96%
    23:00 -24°C° 0 mm 4 mps 762 mmHg 95%

    27 January, Sunday

    Time Temperature Precipitation Wind Pressure Humidity
    00:00 -23°C° 0 mm 4 mps 761 mmHg 94%
    01:00 -23°C° 0.1 mm 4 mps 761 mmHg 93%
    02:00 -22°C° 0.1 mm 4 mps 761 mmHg 93%
    03:00 -22°C° 0.1 mm 4 mps 760 mmHg 92%
    04:00 -22°C° 0.2 mm 5 mps 760 mmHg 91%
    05:00 -22°C° 0.2 mm 5 mps 759 mmHg 90%
    06:00 -22°C° 0.2 mm 6 mps 759 mmHg 90%
    07:00 -22°C° 0.1 mm 6 mps 758 mmHg 88%
    08:00 -22°C° 0.1 mm 6 mps 758 mmHg 87%
    09:00 -22°C° 0.1 mm 6 mps 758 mmHg 85%
    10:00 -21°C° 0 mm 6 mps 757 mmHg 85%
    11:00 -21°C° 0 mm 6 mps 757 mmHg 84%
    12:00 -20°C° 0 mm 6 mps 756 mmHg 83%
    13:00 -20°C° 0.3 mm 6 mps 755 mmHg 87%
    14:00 -20°C° 0.3 mm 6 mps 755 mmHg 91%
    15:00 -20°C° 0.3 mm 6 mps 754 mmHg 94%
    16:00 -18°C° 0.7 mm 5 mps 754 mmHg 95%
    17:00 -18°C° 0.7 mm 5 mps 753 mmHg 95%
    18:00 -17°C° 0.7 mm 4 mps 753 mmHg 95%
    19:00 -16°C° 0.6 mm 4 mps 753 mmHg 95%
    20:00 -15°C° 0.6 mm 3 mps 752 mmHg 96%
    21:00 -14°C° 0.6 mm 3 mps 752 mmHg 96%
    22:00 -13°C° 0.3 mm 3 mps 752 mmHg 96%
    23:00 -12°C° 0.3 mm 2 mps 752 mmHg 96%

    28 January, Monday

    Time Temperature Precipitation Wind Pressure Humidity
    00:00 -10°C° 0.3 mm 2 mps 751 mmHg 96%
    01:00 -10°C° 0.1 mm 2 mps 751 mmHg 96%
    02:00 -10°C° 0.1 mm 2 mps 751 mmHg 96%
    03:00 -10°C° 0.1 mm 2 mps 751 mmHg 96%
    04:00 -9°C° 0 mm 1 mps 751 mmHg 96%
    05:00 -9°C° 0 mm 1 mps 751 mmHg 96%
    06:00 -9°C° 0 mm 1 mps 752 mmHg 96%
    07:00 -9°C° 0 mm 1 mps 752 mmHg 96%
    08:00 -9°C° 0 mm 1 mps 752 mmHg 96%
    09:00 -8°C° 0 mm 1 mps 753 mmHg 96%
    10:00 -8°C° 0 mm 1 mps 753 mmHg 95%
    11:00 -7°C° 0 mm 1 mps 753 mmHg 94%
    12:00 -6°C° 0 mm 1 mps 753 mmHg 93%
    13:00 -6°C° 0 mm 1 mps 754 mmHg 93%
    14:00 -7°C° 0 mm 2 mps 754 mmHg 94%
    15:00 -8°C° 0 mm 2 mps 754 mmHg 94%
    16:00 -9°C° 0 mm 2 mps 755 mmHg 95%
    17:00 -10°C° 0 mm 2 mps 755 mmHg 95%
    18:00 -12°C° 0 mm 2 mps 756 mmHg 96%
    19:00 -14°C° 0 mm 2 mps 756 mmHg 96%
    20:00 -16°C° 0 mm 2 mps 756 mmHg 96%
    21:00 -19°C° 0 mm 2 mps 757 mmHg 96%
    22:00 -20°C° 0 mm 2 mps 757 mmHg 96%
    23:00 -21°C° 0 mm 2 mps 758 mmHg 96%
    Show more